Location: Asheville, NC
(35.6000°N, 82.5500°W)
Time: 18:45:59
(UTC-05:00)

Hubble Space Telescope - Pass Details

Date: 18 February 2018
Orbit: 537 x 541 km, 28.5° (Epoch: 16 February)

Event Time Altitude Azimuth Distance (km) Brightness Sun altitude
Exits shadow 06:00:45 - 210° (SSW) 2,103 3.5 -15.5°
Reaches altitude 10° 06:01:58 10° 199° (SSW) 1,778 3.3 -15.2°
Maximum altitude 06:04:27 16° 161° (SSE) 1,462 3.2 -14.7°
Drops below altitude 10° 06:06:55 10° 124° (SE) 1,782 4.4 -14.2°
Sets 06:09:55 0° 102° (ESE) 2,675 6.3 -13.6°
